User: anonymous   Login
Location: Proctor
(47.8934°N, 114.3048°W)
Time: 12:25:41
(UTC+00:00)
Language:

Vanguard 2 - Orbit

View from above orbital plane
View from above orbital plane
View from above satellite
View from above satellite

Ground track
Ground track

The orbit data is extracted from the following two-line orbital elements,

1 00011U 59001A   24176.42091792  .00000994  00000-0  50281-3 0  9992
2 00011  32.8795 296.9070 1456246 269.2844  74.1242 11.88476826449372
Epoch (UTC): 24 June 2024 10:06:07
Eccentricity: 0.1456246
inclination: 32.8795°
perigee height: 552 km
apogee height: 2914 km
right ascension of ascending node: 296.9070°
argument of perigee: 269.2844°
revolutions per day: 11.88476826
mean anomaly at epoch: 74.1242°
orbit number at epoch: 44937

The dashed part of the orbit path shows where the satellite is in the earth's shadow,  

DLR